TimeEDT,TemperatureF,Dew PointF,Humidity,Sea Level PressureIn,VisibilityMPH,Wind Direction,Wind SpeedMPH,Gust SpeedMPH,PrecipitationIn,Events,Conditions,WindDirDegrees,DateUTC
12:35 AM,33.8,21.2,60,29.70,10.0,West,10.4,21.9,N/A,,Clear,280,2013-03-16 04:35:00
12:55 AM,33.8,21.2,60,29.70,10.0,West,11.5,16.1,N/A,,Clear,270,2013-03-16 04:55:00
1:55 AM,32.0,19.4,60,29.72,10.0,WNW,9.2,-,N/A,,Clear,290,2013-03-16 05:55:00
2:55 AM,30.2,17.6,60,29.74,10.0,NW,4.6,-,N/A,,Scattered Clouds,310,2013-03-16 06:55:00
3:15 AM,30.2,19.4,64,29.74,10.0,NW,4.6,-,N/A,,Mostly Cloudy,320,2013-03-16 07:15:00
3:35 AM,30.2,19.4,64,29.75,10.0,NW,3.5,-,N/A,,Mostly Cloudy,320,2013-03-16 07:35:00
3:55 AM,30.2,19.4,64,29.76,10.0,NW,4.6,-,N/A,,Overcast,310,2013-03-16 07:55:00
4:15 AM,28.4,19.4,69,29.76,10.0,Calm,Calm,-,N/A,,Mostly Cloudy,0,2013-03-16 08:15:00
4:35 AM,26.6,19.4,74,29.77,10.0,West,3.5,-,N/A,,Clear,280,2013-03-16 08:35:00
4:55 AM,28.4,17.6,64,29.78,10.0,West,5.8,-,N/A,,Clear,270,2013-03-16 08:55:00
5:35 AM,28.4,14.0,55,29.79,10.0,WNW,6.9,-,N/A,,Clear,290,2013-03-16 09:35:00
5:55 AM,28.4,12.2,51,29.80,10.0,West,6.9,-,N/A,,Clear,280,2013-03-16 09:55:00
6:15 AM,28.4,12.2,51,29.80,10.0,WNW,4.6,-,N/A,,Clear,300,2013-03-16 10:15:00
6:35 AM,26.6,12.2,55,29.81,10.0,West,4.6,-,N/A,,Clear,280,2013-03-16 10:35:00
6:55 AM,26.6,12.2,55,29.81,10.0,West,4.6,-,N/A,,Clear,270,2013-03-16 10:55:00
7:15 AM,26.6,12.2,55,29.82,10.0,West,5.8,-,N/A,,Clear,270,2013-03-16 11:15:00
7:35 AM,26.6,12.2,55,29.82,10.0,WNW,3.5,-,N/A,,Clear,290,2013-03-16 11:35:00
7:55 AM,28.4,12.2,51,29.83,10.0,WNW,3.5,-,N/A,,Clear,290,2013-03-16 11:55:00
8:15 AM,28.4,12.2,51,29.84,10.0,WNW,5.8,-,N/A,,Clear,290,2013-03-16 12:15:00
8:35 AM,28.4,12.2,51,29.83,10.0,WNW,9.2,-,N/A,,Clear,300,2013-03-16 12:35:00
8:55 AM,30.2,14.0,51,29.84,10.0,NW,9.2,-,N/A,,Clear,320,2013-03-16 12:55:00
9:15 AM,30.2,15.8,55,29.84,10.0,NW,6.9,-,N/A,,Clear,310,2013-03-16 13:15:00
9:35 AM,32.0,15.8,51,29.84,10.0,NNW,9.2,-,N/A,,Clear,340,2013-03-16 13:35:00
9:55 AM,32.0,12.2,44,29.84,10.0,North,11.5,-,N/A,,Clear,350,2013-03-16 13:55:00
10:35 AM,33.8,10.4,38,29.84,10.0,NNW,6.9,-,N/A,,Clear,340,2013-03-16 14:35:00
10:55 AM,33.8,10.4,38,29.83,10.0,WNW,5.8,-,N/A,,Clear,300,2013-03-16 14:55:00
11:15 AM,33.8,10.4,38,29.83,10.0,WNW,8.1,-,N/A,,Clear,300,2013-03-16 15:15:00
11:35 AM,33.8,8.6,35,29.82,10.0,NW,4.6,-,N/A,,Clear,310,2013-03-16 15:35:00
11:55 AM,33.8,8.6,35,29.82,10.0,Calm,Calm,-,N/A,,Clear,0,2013-03-16 15:55:00
12:15 PM,33.8,6.8,32,29.83,10.0,NNW,6.9,-,N/A,,Clear,340,2013-03-16 16:15:00
12:35 PM,35.6,6.8,30,29.81,10.0,NW,4.6,-,N/A,,Clear,320,2013-03-16 16:35:00
1:15 PM,35.6,6.8,30,29.80,10.0,North,4.6,-,N/A,,Clear,360,2013-03-16 17:15:00
1:35 PM,35.6,6.8,30,29.79,10.0,Calm,Calm,-,N/A,,Clear,0,2013-03-16 17:35:00
1:55 PM,37.4,6.8,28,29.79,10.0,WSW,5.8,-,N/A,,Partly Cloudy,240,2013-03-16 17:55:00
2:15 PM,37.4,6.8,28,29.79,10.0,WSW,3.5,-,N/A,,Scattered Clouds,240,2013-03-16 18:15:00
2:35 PM,37.4,8.6,30,29.79,10.0,West,8.1,-,N/A,,Partly Cloudy,270,2013-03-16 18:35:00
2:55 PM,37.4,6.8,28,29.79,10.0,Calm,Calm,-,N/A,,Clear,0,2013-03-16 18:55:00
3:35 PM,37.4,6.8,28,29.78,10.0,Calm,Calm,-,N/A,,Partly Cloudy,0,2013-03-16 19:35:00
3:55 PM,37.4,8.6,30,29.79,10.0,West,4.6,-,N/A,,Clear,270,2013-03-16 19:55:00
4:15 PM,37.4,8.6,30,29.78,10.0,WNW,5.8,-,N/A,,Clear,300,2013-03-16 20:15:00
4:35 PM,37.4,10.4,33,29.77,10.0,West,6.9,-,N/A,,Clear,260,2013-03-16 20:35:00
4:55 PM,37.4,10.4,33,29.77,10.0,SW,6.9,-,N/A,,Clear,220,2013-03-16 20:55:00
5:15 PM,37.4,8.6,30,29.77,10.0,SW,4.6,-,N/A,,Partly Cloudy,230,2013-03-16 21:15:00
5:55 PM,37.4,8.6,30,29.76,10.0,WSW,3.5,-,N/A,,Clear,240,2013-03-16 21:55:00
6:15 PM,37.4,8.6,30,29.77,10.0,Calm,Calm,-,N/A,,Mostly Cloudy,0,2013-03-16 22:15:00
6:35 PM,35.6,8.6,33,29.77,10.0,SW,3.5,-,N/A,,Scattered Clouds,220,2013-03-16 22:35:00
6:55 PM,35.6,8.6,33,29.77,10.0,SW,3.5,-,N/A,,Mostly Cloudy,220,2013-03-16 22:55:00
7:15 PM,35.6,8.6,33,29.78,10.0,Calm,Calm,-,N/A,,Overcast,0,2013-03-16 23:15:00
7:35 PM,35.6,14.0,41,29.79,10.0,Calm,Calm,-,N/A,,Overcast,0,2013-03-16 23:35:00
8:15 PM,33.8,15.8,48,29.81,10.0,Calm,Calm,-,N/A,,Mostly Cloudy,0,2013-03-17 00:15:00
8:35 PM,33.8,14.0,44,29.81,10.0,West,3.5,-,N/A,,Mostly Cloudy,280,2013-03-17 00:35:00
8:55 PM,33.8,10.4,38,29.82,10.0,West,4.6,-,N/A,,Overcast,270,2013-03-17 00:55:00
9:15 PM,35.6,8.6,33,29.82,10.0,West,3.5,-,N/A,,Overcast,260,2013-03-17 01:15:00
9:35 PM,33.8,10.4,38,29.83,10.0,West,3.5,-,N/A,,Overcast,270,2013-03-17 01:35:00
9:55 PM,33.8,10.4,38,29.83,10.0,West,3.5,-,N/A,,Overcast,270,2013-03-17 01:55:00
10:15 PM,33.8,10.4,38,29.84,10.0,Calm,Calm,-,N/A,,Overcast,0,2013-03-17 02:15:00
10:55 PM,33.8,12.2,41,29.85,10.0,West,3.5,-,N/A,,Overcast,280,2013-03-17 02:55:00
11:15 PM,33.8,14.0,44,29.86,10.0,West,3.5,-,N/A,,Mostly Cloudy,270,2013-03-17 03:15:00
11:35 PM,33.8,14.0,44,29.86,10.0,West,4.6,-,N/A,,Overcast,260,2013-03-17 03:35:00
11:55 PM,33.8,14.0,44,29.86,10.0,Calm,Calm,-,N/A,,Mostly Cloudy,0,2013-03-17 03:55:00